G4MHJ-1 Weather Reports


Display with metric or nautical units.
time (UTC)temp
F
wind
direction
speed
MPH
gust
MPH
rain 1hr
in
rain 24hr
in
rain mn
in
humidity
%
barometer
mb
20260507042157 48 43 1.0 4.0 0.00 0.00 0.00 88 1015.3
20260507032157 48 43 1.0 5.0 0.00 0.00 0.00 88 1015.3
20260507022155 48 41 1.0 4.0 0.00 0.00 0.00 88 1015.1
20260507012155 49 40 0.0 4.0 0.00 0.00 0.00 86 1014.9
20260507002155 49 46 1.0 4.0 0.00 0.00 0.00 87 1014.9
20260506232155 50 49 1.0 5.0 0.00 0.00 0.00 86 1014.8
20260506222153 50 38 2.0 7.0 0.00 0.00 0.00 84 1014.7
20260506212154 51 46 2.0 9.0 0.00 0.00 0.00 80 1014.5
20260506202154 52 348 4.0 9.0 0.00 0.00 0.00 73 1014.2
20260506192152 53 42 1.0 4.0 0.00 0.00 0.00 75 1013.6
20260506182152 53 47 0.0 7.0 0.00 0.00 0.00 72 1013.1
20260506172143 53 38 3.0 8.0 0.00 0.00 0.00 69 1012.8
20260506162143 54 41 3.0 8.0 0.00 0.00 0.00 67 1012.8
20260506152144 55 44 3.0 10.0 0.00 0.00 0.00 66 1012.7
20260506142144 55 0 4.0 11.0 0.00 0.00 0.00 68 1012.7
20260506132143 55 27 4.0 13.0 0.00 0.00 0.00 68 1012.9
20260506122143 54 21 5.0 13.0 0.00 0.00 0.00 68 1012.8
20260506112143 54 5 5.0 12.0 0.00 0.00 0.00 67 1012.8
20260506102143 54 9 6.0 16.0 0.00 0.00 0.00 67 1012.8
20260506092144 51 10 5.0 16.0 0.00 0.00 0.00 73 1012.9
20260506082144 51 355 6.0 13.0 0.00 0.00 0.00 76 1012.5
20260506072143 48 348 5.0 12.0 0.00 0.00 0.00 83 1012.7
20260506062144 46 49 5.0 10.0 0.00 0.00 0.00 85 1012.5